Theta_e
318 318 316 315 315 315 315 314 314 313 314 313 312 312 312 313 313 312 312 312 312 312 311 312 312 312 313 313 314 313 313 313 313 313 313 313 313 312 310 310 311 310
315 316 315 315 314 314 313 313 314 313 312 313 312 312 313 312 312 312 311 311 311 311 311 311 311 311 311 311 312 312 311 312 311 312 312 313 312 312 311 311 311 311
314 314 314 313 312 312 313 314 313 313 311 312 313 312 312 312 311 311 310 310 310 310 310 310 310 311 310 310 311 311 311 310 309 311 312 311 311 311 311 311 310 311
313 313 313 312 312 312 312 312 312 312 312 311 311 311 311 311 311 310 310 309 309 309 309 309 309 310 310 310 310 309 310 309 309 310 310 310 310 310 311 311 310 310
312 312 312 312 312 312 312 311 310 311 310 310 310 310 310 310 309 309 309 308 308 308 308 308 308 308 309 309 309 308 309 308 309 309 308 308 309 310 310 310 310 309
311 311 311 311 311 311 310 310 309 309 309 309 309 308 308 308 308 307 307 307 307 307 307 307 307 307 308 308 308 308 308 307 308 308 307 307 308 309 309 309 308 308
310 310 310 310 310 310 309 309 308 309 308 308 308 307 307 307 307 307 307 307 307 307 306 306 306 307 307 307 307 307 307 308 307 307 306 307 308 307 308 308 308 307
309 310 310 309 309 308 307 307 307 307 308 308 307 307 307 306 306 307 306 306 306 305 306 306 305 306 306 307 306 306 306 307 307 306 306 306 306 306 307 308 308 307
309 309 308 309 308 307 307 306 306 307 307 307 306 306 307 307 306 306 306 306 306 306 306 305 305 305 306 305 305 305 305 306 306 306 306 306 305 305 305 306 306 306
308 308 308 307 307 307 307 307 306 306 306 306 306 306 305 306 306 305 305 305 305 305 305 304 304 304 304 305 305 305 305 304 305 305 305 305 305 305 305 305 305 304
307 307 307 307 307 306 307 306 306 306 306 305 305 305 305 305 305 305 305 305 305 304 304 304 303 303 303 303 304 305 305 304 304 305 305 305 305 305 304 305 304 304
307 307 306 306 306 306 306 306 306 306 305 305 305 304 305 305 305 305 304 304 304 304 304 303 303 302 302 302 303 304 305 305 305 305 305 304 304 304 304 304 304 303
306 306 306 306 306 305 306 305 305 305 304 304 304 304 304 304 304 304 304 304 304 304 303 302 302 301 301 301 301 302 304 304 305 304 304 305 305 304 304 304 303 303
306 306 305 305 305 305 305 304 304 304 304 305 305 304 304 303 303 303 304 304 304 304 303 303 301 300 299 299 300 301 302 304 304 304 304 304 305 304 304 303 303 303
305 305 305 305 304 304 304 304 304 304 304 304 304 304 305 303 303 304 303 303 304 304 303 302 300 299 298 297 298 299 301 303 304 304 304 303 303 303 303 302 302 302
305 305 304 304 304 303 303 304 304 304 304 304 304 304 304 304 303 304 303 303 303 303 303 301 299 299 296 293 294 297 301 303 304 304 303 303 302 302 302 302 302 302
304 303 303 303 303 303 303 303 303 304 303 303 303 303 303 303 303 303 303 303 303 303 302 301 298 297 292 291 292 292 298 302 303 303 303 303 302 301 301 300 301 301
302 302 301 302 302 302 302 302 303 302 302 303 303 303 303 303 303 302 303 303 303 302 301 300 299 294 291 291 292 291 293 300 304 303 303 302 301 301 300 300 300 300
301 300 301 301 301 302 302 302 302 302 302 302 302 303 303 302 302 302 302 303 303 302 301 299 298 293 291 291 292 291 291 295 303 302 302 301 301 301 300 300 299 298
302 301 301 301 302 302 302 302 302 302 302 303 303 303 302 302 302 302 302 302 302 302 301 299 297 294 291 291 291 290 291 293 303 302 301 301 301 301 300 299 299 298
302 302 302 302 302 302 302 302 302 302 302 302 302 302 302 301 301 301 301 301 302 302 301 300 297 292 291 291 291 291 290 294 303 302 301 301 301 301 301 300 299 298
302 302 302 302 301 301 301 301 302 302 302 302 302 302 302 302 301 301 301 301 301 301 301 300 298 291 291 291 291 291 291 301 301 301 300 300 300 300 301 301 300 299
302 301 301 301 301 301 301 301 301 302 302 302 302 302 302 301 301 300 301 300 300 300 301 300 299 294 291 291 291 290 294 301 301 300 300 300 300 300 300 300 300 299
302 302 301 301 301 301 301 302 302 302 302 303 302 301 300 301 301 300 301 301 300 299 299 300 299 295 291 291 291 290 293 300 299 298 299 299 300 300 300 300 299 300
302 302 301 301 301 302 302 301 302 302 303 303 302 302 301 301 301 301 300 301 301 300 298 299 300 297 292 291 291 291 294 299 298 298 298 299 298 298 300 299 300 299
302 302 302 302 302 302 303 302 303 303 303 302 302 301 301 301 301 301 300 300 301 301 300 299 299 299 297 291 291 291 291 297 299 297 296 297 298 297 297 298 299 299
Wind_Speed
6 6 7 6 6 6 7 7 7 7 6 6 6 6 7 7 7 7 7 7 8 8 8 8 8 8 7 7 7 6 7 7 7 7 7 8 7 9 9 11 10 9
8 7 6 6 7 7 7 7 7 7 7 6 6 7 7 7 7 7 7 8 8 9 9 9 8 9 8 7 8 7 7 8 8 6 7 8 7 8 9 10 10 10
8 8 8 8 8 9 8 8 7 7 6 7 7 6 6 6 7 7 8 7 7 8 9 9 9 9 9 8 8 7 7 8 9 9 8 8 8 8 8 8 9 11
9 8 8 8 8 8 7 7 6 6 6 6 7 6 6 6 6 7 7 8 7 8 8 9 9 8 9 9 8 7 7 7 8 8 8 7 8 8 8 8 8 9
9 8 8 8 8 9 8 8 8 7 7 7 7 7 7 7 7 7 7 7 7 8 8 9 9 9 8 8 8 7 7 7 8 9 8 8 8 8 7 8 9 9
9 8 9 9 8 8 7 8 8 8 8 8 8 7 8 8 7 7 8 8 8 8 9 9 9 9 8 9 8 8 7 8 8 9 9 8 8 8 7 8 9 9
10 10 10 9 9 9 9 8 8 8 8 7 8 8 8 8 8 8 8 8 8 8 9 9 9 9 9 8 8 9 8 8 9 10 10 9 9 10 9 9 9 10
10 9 9 9 10 9 9 9 8 8 7 8 8 8 8 8 8 7 7 8 8 9 9 10 10 10 9 8 9 9 9 7 9 10 10 10 10 10 11 9 9 10
10 10 9 10 10 9 10 9 8 8 7 8 7 7 7 7 8 8 8 8 8 9 9 9 10 10 9 9 9 9 9 9 9 9 10 10 10 11 11 10 10 10
10 10 10 10 10 9 10 9 8 8 8 8 7 7 7 7 7 8 8 8 9 9 9 10 11 10 10 9 10 9 9 9 9 9 9 10 10 11 11 11 11 11
11 10 10 10 10 9 9 9 8 8 7 8 8 8 8 7 7 7 8 9 8 9 10 11 11 11 11 11 10 9 9 9 9 9 9 10 10 10 10 10 11 11
10 10 10 10 9 9 9 8 8 8 8 7 8 8 8 8 8 7 8 9 9 9 10 11 12 12 12 12 11 10 8 8 8 9 9 9 9 10 10 10 10 11
10 9 9 9 8 8 8 8 8 8 8 8 8 8 8 8 8 8 8 9 9 9 10 11 12 12 12 12 12 11 10 9 9 9 9 8 9 9 10 11 12 11
9 9 8 8 8 8 8 8 8 8 8 7 8 8 8 8 8 8 8 8 9 9 10 10 12 12 13 13 12 12 10 9 8 9 9 9 9 10 11 11 12 12
9 8 8 8 8 8 8 8 8 8 8 8 8 8 7 8 9 9 9 9 9 9 10 10 11 12 11 12 12 12 9 8 8 8 9 9 10 11 11 12 12 12
9 8 8 8 8 8 8 8 8 8 8 8 8 8 8 8 9 9 9 9 9 9 9 10 11 10 14 19 15 12 10 7 7 8 9 10 10 11 11 12 13 13
9 8 8 8 8 8 8 8 8 7 8 8 8 8 8 8 8 9 9 8 9 9 10 10 11 12 16 16 17 17 11 9 8 8 9 9 11 12 12 13 14 14
8 8 8 8 8 9 9 8 8 8 8 8 8 9 8 8 9 9 9 8 7 9 10 10 11 15 16 18 17 18 15 11 7 8 9 10 11 12 11 12 14 14
9 9 8 8 8 9 8 8 8 8 8 8 8 8 8 9 9 9 9 8 8 9 10 11 12 15 16 18 18 18 18 15 7 9 9 10 12 12 12 13 13 14
10 10 8 8 8 8 8 8 8 8 7 7 7 7 8 8 9 9 9 9 8 8 9 11 14 14 16 18 18 19 18 16 7 10 9 10 11 12 11 12 13 13
10 9 9 9 9 8 8 8 8 7 7 7 7 7 7 7 8 8 8 9 9 8 8 10 11 14 16 17 18 19 20 16 8 7 9 10 11 12 11 12 13 13
10 9 9 9 9 9 8 8 7 7 7 6 6 6 6 7 7 7 8 9 9 8 8 9 12 14 16 16 18 19 22 8 9 8 9 9 10 13 12 12 12 13
10 9 9 9 8 8 8 7 7 7 6 5 6 6 6 6 7 7 8 8 10 9 8 8 11 13 14 15 17 19 16 10 10 9 10 11 11 11 12 11 13 13
9 9 9 9 8 8 7 7 6 6 6 5 6 6 6 6 6 6 7 7 9 10 9 8 9 11 13 14 15 18 17 11 10 10 10 10 10 11 10 12 12 10
9 9 9 8 8 8 7 7 6 5 5 4 5 5 6 6 6 6 7 7 7 8 9 10 9 11 12 12 14 15 14 10 10 10 11 11 11 12 12 10 10 10
9 9 8 8 8 7 6 6 5 5 5 5 5 5 6 5 5 6 6 7 6 7 7 9 9 9 12 11 12 12 13 12 10 10 11 11 11 12 11 11 10 10
Wind_Direction
71 73 75 75 70 68 71 74 75 76 77 76 77 71 63 58 47 46 43 40 36 31 27 22 19 17 11 16 10 10 19 13 9 5 359 2 3 2 1 357 356 355
78 78 77 76 79 77 77 78 78 79 78 71 72 71 65 59 52 46 42 39 37 34 28 25 22 20 17 15 12 15 16 14 9 3 354 360 2 360 2 359 359 355
82 83 82 82 83 84 84 79 76 77 76 73 69 66 66 60 55 50 44 36 38 34 31 27 24 21 19 18 13 18 14 14 10 0 358 4 1 358 359 357 359 355
83 85 88 88 89 88 84 83 84 82 79 73 67 68 68 63 57 53 47 41 38 37 32 30 26 22 20 19 16 21 12 17 11 359 1 3 3 357 355 351 353 353
90 89 89 91 87 83 84 84 80 76 74 73 72 65 62 59 57 51 47 42 39 37 32 31 28 25 19 20 17 17 12 14 9 3 4 3 3 359 354 350 351 349
92 89 85 86 88 89 87 83 79 77 76 70 65 64 61 58 54 51 46 43 39 35 34 29 28 24 18 17 18 18 13 9 5 2 4 4 359 2 356 351 351 350
94 91 90 89 88 86 85 80 75 71 68 69 67 62 61 57 54 47 43 39 37 35 30 28 26 24 19 15 16 13 11 6 0 4 3 3 357 1 2 356 353 351
95 93 91 89 88 85 81 78 73 71 72 71 68 63 58 55 52 46 43 41 38 35 33 29 26 25 19 15 13 8 8 9 1 1 0 360 359 359 360 359 354 354
98 94 93 90 86 82 80 78 75 72 68 69 67 66 58 53 50 49 43 40 40 38 33 29 26 22 20 14 14 8 5 6 359 359 357 355 357 357 359 355 357 358
96 95 91 89 85 80 78 75 75 74 70 66 64 60 63 57 51 47 48 43 42 39 36 31 26 22 17 13 11 6 3 1 358 359 357 355 356 355 357 356 356 357
96 93 90 86 84 82 80 79 76 73 67 67 66 63 58 57 54 49 47 47 43 39 36 33 28 21 16 11 9 3 1 0 357 357 358 357 357 355 358 357 355 357
97 94 91 88 87 84 81 79 77 74 73 67 62 64 59 54 53 48 43 47 46 43 39 36 30 24 17 10 4 359 358 359 359 360 356 356 356 356 358 358 356 357
95 92 90 88 84 84 84 80 75 74 72 68 63 59 55 53 49 53 49 47 48 45 41 36 32 25 18 7 1 357 353 355 1 1 358 360 358 358 360 1 360 359
98 95 90 87 87 87 84 82 80 77 71 67 61 54 52 49 48 51 53 52 49 49 44 37 31 26 18 5 356 353 347 347 356 358 357 360 357 1 4 2 1 359
101 97 96 95 94 91 87 83 80 73 70 66 61 60 51 50 50 50 51 53 53 50 47 40 32 24 17 3 357 353 346 350 357 1 359 2 360 2 3 3 2 359
107 105 102 99 96 93 89 87 82 76 71 66 61 58 55 50 52 49 49 50 50 49 49 42 31 25 3 0 357 357 350 348 2 6 5 5 5 5 3 3 1 359
111 107 105 100 98 97 95 89 82 78 72 68 63 58 56 54 50 52 50 47 49 49 45 41 33 16 357 359 352 349 348 348 8 3 7 4 8 8 1 0 359 356
111 109 104 104 103 96 93 89 85 80 74 69 66 63 58 55 54 50 50 48 49 51 46 38 32 18 358 360 352 349 344 331 0 6 8 7 11 7 1 2 357 355
119 115 110 104 99 97 93 90 85 80 75 72 67 65 63 57 53 51 49 47 47 50 47 38 30 18 1 1 352 347 342 329 12 8 10 9 10 5 4 2 358 355
121 118 117 111 106 100 96 91 86 79 76 71 73 70 65 61 57 52 48 46 43 45 49 42 29 16 6 2 354 345 341 324 19 8 12 7 10 7 4 3 3 356
129 126 118 112 105 100 96 91 85 81 73 70 69 65 63 60 53 53 49 45 42 41 45 43 36 21 10 3 356 344 338 314 23 7 11 5 7 7 1 4 6 358
129 126 122 117 111 106 100 92 87 81 78 73 70 70 68 66 61 56 51 47 43 38 40 45 42 29 10 5 355 351 331 347 11 12 11 9 4 4 1 6 4 357
134 130 123 119 114 111 103 96 90 84 78 74 72 68 67 65 66 60 55 52 46 38 35 43 42 31 14 6 358 353 343 359 11 8 3 8 6 358 8 360 4 5
134 130 127 122 118 111 107 102 96 89 82 68 66 68 66 64 67 65 62 57 51 45 27 35 42 41 22 8 2 357 346 352 16 3 7 4 0 10 359 4 9 25
132 129 126 124 118 112 108 104 95 87 85 81 78 75 71 71 62 63 60 56 55 57 43 33 36 42 29 11 3 359 352 354 12 9 360 6 1 1 360 4 354 359
130 128 127 125 121 117 112 103 96 90 80 75 68 64 64 61 62 64 60 57 53 54 55 41 30 33 28 9 6 358 357 339 9 11 0 359 360 3 351 4 352 354